Regional Weather Roundup
Issued by NWS

Home | Current Version | Previous Version | Graphics & Text | Print | Product List | Glossary On
Versions: 1 2 3 4 5 6 7 8 9 10 11 12 13 14 15 16 17 18 19 20 21 22 23 24 25 26 27 28 29 30 31 32 33 34 35 36 37 38 39 40 41 42 43 44 45 46 47 48 49 50
000
ASUS45 KCYS 300210
RWRWY

WYOMING REGIONAL WEATHER ROUNDUP
NATIONAL WEATHER SERVICE CHEYENNE WY
800 PM MDT TUE JUL 29 2014

NOTE:  "FAIR" INDICATES FEW OR NO CLOUDS BELOW 12,000 FEET
WITH NO SIGNIFICANT WEATHER AND/OR OBSTRUCTIONS TO VISIBILITY.

WYZ001-300300-
YELLOWSTONE NATIONAL PARK

CITY           SKY/WX    TMP DP  RH WIND       PRES   REMARKS
LK YELLOWSTONE   N/A     55  49  80 NW3       30.43F
W YELLOWSTONE  NOT AVBL

$$
WYZ002>013-054>058-071-098>099-300300-
NORTHERN WYOMING

CITY           SKY/WX    TMP DP  RH WIND       PRES   REMARKS
JACKSON        PTCLDY    63  52  67 N13       30.33R
CODY           NOT AVBL
GREYBULL       CLOUDY    71  53  52 S8        30.22S
WORLAND        CLOUDY    67  59  75 SE8       30.24F
SHERIDAN       MOCLDY    70  53  54 CALM      30.21S
BUFFALO          N/A     67  51  56 S6        30.28F
GILLETTE       CLOUDY    67  55  65 SW6       30.25S
HULETT         FAIR      66  59  77 MISG      30.25
NEWCASTLE      FAIR      66  55  68 CALM      30.27

$$
WYZ014>020-022>026-101>103-300300-
CENTRAL WYOMING

CITY           SKY/WX    TMP DP  RH WIND       PRES   REMARKS
BIG PINEY      CLOUDY    58  55  90 N5        30.36S
PINEDALE       DRIZZLE   57  50  77 E3        30.37S
DUBOIS         CLOUDY    54  46  76 SE6       30.39S
LANDER         LGT RAIN  59  56  89 W3        30.31F
RIVERTON       CLOUDY    59  57  93 W6        30.33S
CASPER         LGT RAIN  58  55  90 E10       30.32S
DOUGLAS        LGT RAIN  59  56  89 NE8       30.32R

$$
WYZ021-027>030-104>119-300300-
SOUTHERN WYOMING

CITY           SKY/WX    TMP DP  RH WIND       PRES   REMARKS
EVANSTON       CLOUDY    59  56  89 NE9       30.31S
KEMMERER       RAIN      55  54  94 NE16G22   30.35S
FORT BRIDGER   CLOUDY    60  55  83 SE6       30.34F
ROCK SPRINGS   CLOUDY    58  53  84 NE21      30.33F
DIXON          CLOUDY    65  53  65 N10       30.30R
RAWLINS        LGT RAIN  56  54  93 NE13      30.33S
SARATOGA       CLOUDY    59  54  82 CALM      30.33S
LARAMIE        LGT RAIN  54  52  93 N5        30.35S
CHEYENNE       LGT RAIN  59  56  89 NE7       30.31R FOG
TORRINGTON     LGT RAIN  64  61  90 W9        30.24R
PINE BLUFFS    RAIN      61  57  88 CALM      30.28R

$$



USA.gov is the U.S. government's official web portal to all federal, state and local government web resources and services.